contact:dominique.lefevre@mio.osupytheas.fr, maurice.libes@osupytheas.fr, didier.mallarino@osupytheas.fr
Project:EMSO http://www.emso-fr.org/EMSO-France
Depth: 2436.0 m
Title:EMSO Ligure Ouest : Data MII capteur MICROCAT
DateTime_Computer,Latitude,Longitude,Temperature,Conductivity,Pressure,DateTime_Instrument
DateTime_Computer,Latitude,Longitude,degC,S m-1,dbar,DateTime_Instrument
2020-11-05T00:01:09Z,42.805,6.029,13.2977,4.59986,2470.18,2020-11-05T02:02:05Z
2020-11-05T00:04:12Z,42.805,6.029,13.2980,4.59983,2470.18,2020-11-05T02:05:08Z
2020-11-05T00:07:15Z,42.805,6.029,13.2981,4.59981,2470.217,2020-11-05T02:08:11Z
2020-11-05T00:10:18Z,42.805,6.029,13.2978,4.59992,2470.194,2020-11-05T02:11:14Z
2020-11-05T00:13:21Z,42.805,6.029,13.2981,4.59981,2470.18,2020-11-05T02:14:17Z
2020-11-05T00:16:24Z,42.805,6.029,13.2983,4.59981,2470.203,2020-11-05T02:17:20Z
2020-11-05T00:19:28Z,42.805,6.029,13.2985,4.59986,2470.24,2020-11-05T02:20:23Z
2020-11-05T00:22:31Z,42.805,6.029,13.2979,4.59985,2470.18,2020-11-05T02:23:26Z
2020-11-05T00:25:34Z,42.805,6.029,13.2982,4.59982,2470.171,2020-11-05T02:26:30Z
2020-11-05T00:28:37Z,42.805,6.029,13.2979,4.59981,2470.18,2020-11-05T02:29:33Z
2020-11-05T00:31:40Z,42.805,6.029,13.2980,4.59980,2470.203,2020-11-05T02:32:36Z
2020-11-05T00:34:43Z,42.805,6.029,13.2983,4.59987,2470.171,2020-11-05T02:35:39Z
2020-11-05T00:37:46Z,42.805,6.029,13.2978,4.59983,2470.171,2020-11-05T02:38:42Z
2020-11-05T00:40:49Z,42.805,6.029,13.2975,4.59984,2470.194,2020-11-05T02:41:45Z
2020-11-05T00:43:53Z,42.805,6.029,13.2973,4.59979,2470.194,2020-11-05T02:44:48Z
2020-11-05T00:46:56Z,42.805,6.029,13.2982,4.59983,2470.166,2020-11-05T02:47:51Z
2020-11-05T00:49:59Z,42.805,6.029,13.2974,4.59988,2470.156,2020-11-05T02:50:54Z
2020-11-05T00:53:02Z,42.805,6.029,13.2974,4.59981,2470.18,2020-11-05T02:53:58Z
2020-11-05T00:56:05Z,42.805,6.029,13.2975,4.59983,2470.171,2020-11-05T02:57:01Z
2020-11-05T00:59:08Z,42.805,6.029,13.2976,4.59995,2470.171,2020-11-05T03:00:04Z
2020-11-05T01:02:11Z,42.805,6.029,13.2978,4.59988,2470.194,2020-11-05T03:03:07Z
2020-11-05T01:05:14Z,42.805,6.029,13.2976,4.59981,2470.147,2020-11-05T03:06:10Z
2020-11-05T01:08:17Z,42.805,6.029,13.2980,4.59979,2470.194,2020-11-05T03:09:13Z
2020-11-05T01:11:21Z,42.805,6.029,13.2978,4.59980,2470.156,2020-11-05T03:12:16Z
2020-11-05T01:14:24Z,42.805,6.029,13.2976,4.59983,2470.156,2020-11-05T03:15:19Z
2020-11-05T01:17:27Z,42.805,6.029,13.2978,4.59981,2470.133,2020-11-05T03:18:23Z
2020-11-05T01:20:30Z,42.805,6.029,13.2976,4.59985,2470.18,2020-11-05T03:21:26Z
2020-11-05T01:23:33Z,42.805,6.029,13.2976,4.59987,2470.171,2020-11-05T03:24:29Z
2020-11-05T01:26:36Z,42.805,6.029,13.2976,4.59987,2470.156,2020-11-05T03:27:32Z
2020-11-05T01:29:39Z,42.805,6.029,13.2976,4.59986,2470.18,2020-11-05T03:30:35Z
2020-11-05T01:32:42Z,42.805,6.029,13.2976,4.59985,2470.171,2020-11-05T03:33:38Z
2020-11-05T01:35:45Z,42.805,6.029,13.2976,4.59983,2470.156,2020-11-05T03:36:41Z
2020-11-05T01:38:49Z,42.805,6.029,13.2981,4.59987,2470.133,2020-11-05T03:39:44Z
2020-11-05T01:41:52Z,42.805,6.029,13.2974,4.59983,2470.133,2020-11-05T03:42:47Z
2020-11-05T01:44:55Z,42.805,6.029,13.2979,4.59992,2470.133,2020-11-05T03:45:51Z
2020-11-05T01:47:58Z,42.805,6.029,13.2976,4.59991,2470.171,2020-11-05T03:48:54Z
2020-11-05T01:51:01Z,42.805,6.029,13.2978,4.59984,2470.133,2020-11-05T03:51:57Z
2020-11-05T01:54:04Z,42.805,6.029,13.2975,4.59984,2470.133,2020-11-05T03:55:00Z
2020-11-05T01:57:07Z,42.805,6.029,13.2973,4.59984,2470.133,2020-11-05T03:58:03Z
2020-11-05T02:00:10Z,42.805,6.029,13.2975,4.59983,2470.133,2020-11-05T04:01:06Z
2020-11-05T02:03:14Z,42.805,6.029,13.2975,4.59984,2470.133,2020-11-05T04:04:09Z
2020-11-05T02:06:17Z,42.805,6.029,13.2977,4.59995,2470.124,2020-11-05T04:07:12Z
2020-11-05T02:09:20Z,42.805,6.029,13.2974,4.60011,2470.133,2020-11-05T04:10:15Z
2020-11-05T02:12:23Z,42.805,6.029,13.2975,4.59981,2470.171,2020-11-05T04:13:19Z
2020-11-05T02:15:26Z,42.805,6.029,13.2977,4.59987,2470.171,2020-11-05T04:16:22Z
2020-11-05T02:18:29Z,42.805,6.029,13.2981,4.59984,2470.147,2020-11-05T04:19:25Z
2020-11-05T02:21:32Z,42.805,6.029,13.2982,4.59986,2470.156,2020-11-05T04:22:28Z
2020-11-05T02:24:35Z,42.805,6.029,13.2980,4.59984,2470.171,2020-11-05T04:25:31Z
2020-11-05T02:27:38Z,42.805,6.029,13.2973,4.59988,2470.124,2020-11-05T04:28:34Z
2020-11-05T02:30:42Z,42.805,6.029,13.2979,4.59986,2470.171,2020-11-05T04:31:37Z
2020-11-05T02:33:45Z,42.805,6.029,13.2977,4.59982,2470.133,2020-11-05T04:34:40Z
2020-11-05T02:36:48Z,42.805,6.029,13.2978,4.59985,2470.147,2020-11-05T04:37:43Z
2020-11-05T02:39:51Z,42.805,6.029,13.2982,4.59986,2470.11,2020-11-05T04:40:47Z
2020-11-05T02:42:54Z,42.805,6.029,13.2979,4.59983,2470.11,2020-11-05T04:43:50Z
2020-11-05T02:45:57Z,42.805,6.029,13.2975,4.59982,2470.087,2020-11-05T04:46:53Z
2020-11-05T02:49:00Z,42.805,6.029,13.2975,4.59983,2470.133,2020-11-05T04:49:56Z
2020-11-05T02:52:03Z,42.805,6.029,13.2979,4.59987,2470.156,2020-11-05T04:52:59Z
2020-11-05T02:55:07Z,42.805,6.029,13.2982,4.59990,2470.124,2020-11-05T04:56:02Z
2020-11-05T02:58:10Z,42.805,6.029,13.2982,4.59984,2470.133,2020-11-05T04:59:05Z
2020-11-05T03:01:13Z,42.805,6.029,13.2984,4.59996,2470.133,2020-11-05T05:02:08Z
2020-11-05T03:04:16Z,42.805,6.029,13.2991,4.59989,2470.147,2020-11-05T05:05:12Z
2020-11-05T03:07:19Z,42.805,6.029,13.2984,4.59999,2470.133,2020-11-05T05:08:15Z
2020-11-05T03:10:22Z,42.805,6.029,13.2985,4.59999,2470.11,2020-11-05T05:11:18Z
2020-11-05T03:13:25Z,42.805,6.029,13.2989,4.59986,2470.147,2020-11-05T05:14:21Z
2020-11-05T03:16:28Z,42.805,6.029,13.2979,4.59985,2470.133,2020-11-05T05:17:24Z
2020-11-05T03:19:31Z,42.805,6.029,13.2979,4.59984,2470.124,2020-11-05T05:20:27Z
2020-11-05T03:22:35Z,42.805,6.029,13.2979,4.59984,2470.133,2020-11-05T05:23:30Z
2020-11-05T03:25:38Z,42.805,6.029,13.2985,4.59983,2470.11,2020-11-05T05:26:33Z
2020-11-05T03:28:41Z,42.805,6.029,13.2975,4.59988,2470.1,2020-11-05T05:29:36Z
2020-11-05T03:31:44Z,42.805,6.029,13.2982,4.59986,2470.1,2020-11-05T05:32:40Z
2020-11-05T03:34:47Z,42.805,6.029,13.2974,4.59991,2470.133,2020-11-05T05:35:43Z
2020-11-05T03:37:50Z,42.805,6.029,13.2976,4.59993,2470.1,2020-11-05T05:38:46Z
2020-11-05T03:40:53Z,42.805,6.029,13.2976,4.59991,2470.171,2020-11-05T05:41:49Z
2020-11-05T03:43:56Z,42.805,6.029,13.2986,4.60092,2470.171,2020-11-05T05:44:52Z
2020-11-05T03:46:59Z,42.805,6.029,13.2989,4.60032,2470.133,2020-11-05T05:47:55Z
2020-11-05T03:50:03Z,42.805,6.029,13.3020,4.60001,2470.147,2020-11-05T05:50:58Z
2020-11-05T03:53:06Z,42.805,6.029,13.2997,4.60011,2470.124,2020-11-05T05:54:01Z
2020-11-05T03:56:09Z,42.805,6.029,13.3000,4.60003,2470.11,2020-11-05T05:57:05Z
2020-11-05T03:59:12Z,42.805,6.029,13.3011,4.60009,2470.133,2020-11-05T06:00:08Z
2020-11-05T04:02:15Z,42.805,6.029,13.3010,4.59991,2470.133,2020-11-05T06:03:11Z
2020-11-05T04:05:18Z,42.805,6.029,13.3009,4.59992,2470.11,2020-11-05T06:06:14Z
2020-11-05T04:08:21Z,42.805,6.029,13.3010,4.59998,2470.124,2020-11-05T06:09:17Z
2020-11-05T04:11:24Z,42.805,6.029,13.3006,4.60014,2470.11,2020-11-05T06:12:20Z
2020-11-05T04:14:27Z,42.805,6.029,13.3009,4.59986,2470.124,2020-11-05T06:15:23Z
2020-11-05T04:17:31Z,42.805,6.029,13.3006,4.59990,2470.133,2020-11-05T06:18:26Z
2020-11-05T04:20:34Z,42.805,6.029,13.2991,4.59990,2470.147,2020-11-05T06:21:29Z
2020-11-05T04:23:37Z,42.805,6.029,13.3000,4.59999,2470.11,2020-11-05T06:24:33Z
2020-11-05T04:26:40Z,42.805,6.029,13.2995,4.60000,2470.133,2020-11-05T06:27:36Z
2020-11-05T04:29:43Z,42.805,6.029,13.2990,4.60003,2470.156,2020-11-05T06:30:39Z
2020-11-05T04:32:46Z,42.805,6.029,13.2984,4.59994,2470.156,2020-11-05T06:33:42Z
2020-11-05T04:35:49Z,42.805,6.029,13.2991,4.60002,2470.11,2020-11-05T06:36:45Z
2020-11-05T04:38:52Z,42.805,6.029,13.2986,4.59988,2470.171,2020-11-05T06:39:48Z
2020-11-05T04:41:56Z,42.805,6.029,13.2977,4.59987,2470.11,2020-11-05T06:42:51Z
2020-11-05T04:44:59Z,42.805,6.029,13.2979,4.59987,2470.133,2020-11-05T06:45:54Z
2020-11-05T04:48:02Z,42.805,6.029,13.2981,4.59983,2470.133,2020-11-05T06:48:58Z
2020-11-05T04:51:05Z,42.805,6.029,13.2976,4.59993,2470.147,2020-11-05T06:52:01Z
2020-11-05T04:54:08Z,42.805,6.029,13.2979,4.59986,2470.171,2020-11-05T06:55:04Z
2020-11-05T04:57:11Z,42.805,6.029,13.2976,4.59986,2470.171,2020-11-05T06:58:07Z
2020-11-05T05:00:14Z,42.805,6.029,13.2977,4.59986,2470.147,2020-11-05T07:01:10Z
2020-11-05T05:03:17Z,42.805,6.029,13.2987,4.59987,2470.171,2020-11-05T07:04:13Z
2020-11-05T05:06:21Z,42.805,6.029,13.2984,4.59984,2470.133,2020-11-05T07:07:16Z
2020-11-05T05:09:24Z,42.805,6.029,13.2986,4.59985,2470.194,2020-11-05T07:10:19Z
2020-11-05T05:12:27Z,42.805,6.029,13.2985,4.59986,2470.133,2020-11-05T07:13:22Z
2020-11-05T05:15:30Z,42.805,6.029,13.2979,4.59991,2470.124,2020-11-05T07:16:26Z
2020-11-05T05:18:33Z,42.805,6.029,13.2979,4.59992,2470.156,2020-11-05T07:19:29Z
2020-11-05T05:21:36Z,42.805,6.029,13.2975,4.60004,2470.171,2020-11-05T07:22:32Z
2020-11-05T05:24:39Z,42.805,6.029,13.2979,4.59998,2470.133,2020-11-05T07:25:35Z
2020-11-05T05:27:42Z,42.805,6.029,13.2985,4.59996,2470.133,2020-11-05T07:28:38Z
2020-11-05T05:30:45Z,42.805,6.029,13.2982,4.59991,2470.133,2020-11-05T07:31:41Z
2020-11-05T05:33:49Z,42.805,6.029,13.2984,4.60003,2470.156,2020-11-05T07:34:44Z
2020-11-05T05:36:52Z,42.805,6.029,13.2991,4.60011,2470.133,2020-11-05T07:37:47Z
2020-11-05T05:39:55Z,42.805,6.029,13.2978,4.60011,2470.156,2020-11-05T07:40:51Z
2020-11-05T05:42:58Z,42.805,6.029,13.2981,4.59995,2470.194,2020-11-05T07:43:54Z
2020-11-05T05:46:01Z,42.805,6.029,13.2979,4.60016,2470.156,2020-11-05T07:46:57Z
2020-11-05T05:49:04Z,42.805,6.029,13.2979,4.60027,2470.194,2020-11-05T07:50:00Z
2020-11-05T05:52:07Z,42.805,6.029,13.2979,4.60007,2470.171,2020-11-05T07:53:03Z
2020-11-05T05:55:10Z,42.805,6.029,13.2979,4.60004,2470.171,2020-11-05T07:56:06Z
2020-11-05T05:58:14Z,42.805,6.029,13.2989,4.60003,2470.156,2020-11-05T07:59:09Z
2020-11-05T06:01:17Z,42.805,6.029,13.2990,4.59999,2470.156,2020-11-05T08:02:12Z
2020-11-05T06:04:20Z,42.805,6.029,13.2982,4.60019,2470.18,2020-11-05T08:05:15Z
2020-11-05T06:07:23Z,42.805,6.029,13.2989,4.59994,2470.156,2020-11-05T08:08:19Z
2020-11-05T06:10:26Z,42.805,6.029,13.2984,4.60006,2470.203,2020-11-05T08:11:22Z
2020-11-05T06:13:29Z,42.805,6.029,13.2988,4.60009,2470.194,2020-11-05T08:14:25Z
2020-11-05T06:16:32Z,42.805,6.029,13.2978,4.60000,2470.18,2020-11-05T08:17:28Z
2020-11-05T06:19:35Z,42.805,6.029,13.2982,4.59989,2470.156,2020-11-05T08:20:31Z
2020-11-05T06:22:38Z,42.805,6.029,13.2982,4.59997,2470.24,2020-11-05T08:23:34Z
2020-11-05T06:25:42Z,42.805,6.029,13.2979,4.59987,2470.203,2020-11-05T08:26:37Z
2020-11-05T06:28:45Z,42.805,6.029,13.2982,4.59984,2470.203,2020-11-05T08:29:40Z
2020-11-05T06:31:48Z,42.805,6.029,13.2981,4.59987,2470.203,2020-11-05T08:32:44Z
2020-11-05T06:34:51Z,42.805,6.029,13.2983,4.59994,2470.203,2020-11-05T08:35:47Z
2020-11-05T06:37:54Z,42.805,6.029,13.2979,4.59999,2470.203,2020-11-05T08:38:50Z
2020-11-05T06:40:57Z,42.805,6.029,13.2981,4.59994,2470.227,2020-11-05T08:41:53Z
2020-11-05T06:44:00Z,42.805,6.029,13.2976,4.60005,2470.217,2020-11-05T08:44:56Z
2020-11-05T06:47:03Z,42.805,6.029,13.2980,4.60039,2470.24,2020-11-05T08:47:59Z
2020-11-05T06:50:07Z,42.805,6.029,13.2978,4.59996,2470.217,2020-11-05T08:51:02Z
2020-11-05T06:53:10Z,42.805,6.029,13.2977,4.60001,2470.227,2020-11-05T08:54:05Z
2020-11-05T06:56:13Z,42.805,6.029,13.2982,4.59999,2470.24,2020-11-05T08:57:09Z
2020-11-05T06:59:16Z,42.805,6.029,13.2981,4.59990,2470.24,2020-11-05T09:00:12Z
2020-11-05T07:02:19Z,42.805,6.029,13.3054,4.59996,2470.25,2020-11-05T09:03:15Z
2020-11-05T07:05:22Z,42.805,6.029,13.3102,4.59996,2470.24,2020-11-05T09:06:18Z
2020-11-05T07:08:25Z,42.805,6.029,13.3062,4.59994,2470.24,2020-11-05T09:09:21Z
2020-11-05T07:11:28Z,42.805,6.029,13.3042,4.59997,2470.24,2020-11-05T09:12:24Z
2020-11-05T07:14:31Z,42.805,6.029,13.3021,4.60013,2470.264,2020-11-05T09:15:27Z
2020-11-05T07:17:35Z,42.805,6.029,13.3050,4.60035,2470.264,2020-11-05T09:18:30Z
2020-11-05T07:20:38Z,42.805,6.029,13.3048,4.60052,2470.24,2020-11-05T09:21:33Z
2020-11-05T07:23:41Z,42.805,6.029,13.3055,4.60006,2470.24,2020-11-05T09:24:37Z
2020-11-05T07:26:44Z,42.805,6.029,13.3021,4.60014,2470.25,2020-11-05T09:27:40Z
2020-11-05T07:29:47Z,42.805,6.029,13.3039,4.60006,2470.25,2020-11-05T09:30:43Z
2020-11-05T07:32:50Z,42.805,6.029,13.3056,4.60030,2470.25,2020-11-05T09:33:46Z
2020-11-05T07:35:53Z,42.805,6.029,13.3058,4.60006,2470.25,2020-11-05T09:36:49Z
2020-11-05T07:38:56Z,42.805,6.029,13.3044,4.60029,2470.264,2020-11-05T09:39:52Z
2020-11-05T07:42:00Z,42.805,6.029,13.3051,4.60029,2470.287,2020-11-05T09:42:55Z
2020-11-05T07:45:03Z,42.805,6.029,13.3039,4.60027,2470.264,2020-11-05T09:45:58Z
2020-11-05T07:48:06Z,42.805,6.029,13.3026,4.60015,2470.264,2020-11-05T09:49:01Z
2020-11-05T07:51:09Z,42.805,6.029,13.3038,4.60037,2470.287,2020-11-05T09:52:05Z
2020-11-05T07:54:12Z,42.805,6.029,13.3048,4.60036,2470.25,2020-11-05T09:55:08Z
2020-11-05T07:57:15Z,42.805,6.029,13.3050,4.60021,2470.273,2020-11-05T09:58:11Z
2020-11-05T08:00:18Z,42.805,6.029,13.3034,4.60054,2470.287,2020-11-05T10:01:14Z
2020-11-05T08:03:21Z,42.805,6.029,13.3038,4.60029,2470.31,2020-11-05T10:04:17Z
2020-11-05T08:06:24Z,42.805,6.029,13.3044,4.60031,2470.287,2020-11-05T10:07:20Z
2020-11-05T08:09:28Z,42.805,6.029,13.3042,4.60046,2470.31,2020-11-05T10:10:23Z
2020-11-05T08:12:31Z,42.805,6.029,13.3044,4.60039,2470.287,2020-11-05T10:13:26Z
2020-11-05T08:15:34Z,42.805,6.029,13.3050,4.60045,2470.31,2020-11-05T10:16:30Z
2020-11-05T08:18:37Z,42.805,6.029,13.3018,4.60035,2470.297,2020-11-05T10:19:33Z
2020-11-05T08:21:40Z,42.805,6.029,13.3030,4.60049,2470.273,2020-11-05T10:22:36Z
2020-11-05T08:24:43Z,42.805,6.029,13.3048,4.60052,2470.31,2020-11-05T10:25:39Z
2020-11-05T08:27:46Z,42.805,6.029,13.3048,4.60017,2470.334,2020-11-05T10:28:42Z
2020-11-05T08:30:49Z,42.805,6.029,13.3046,4.60041,2470.297,2020-11-05T10:31:45Z
2020-11-05T08:33:53Z,42.805,6.029,13.3048,4.60020,2470.334,2020-11-05T10:34:48Z
2020-11-05T08:36:56Z,42.805,6.029,13.3047,4.60020,2470.334,2020-11-05T10:37:51Z
2020-11-05T08:39:59Z,42.805,6.029,13.3045,4.60029,2470.32,2020-11-05T10:40:55Z
2020-11-05T08:43:02Z,42.805,6.029,13.3062,4.60029,2470.297,2020-11-05T10:43:58Z
2020-11-05T08:46:05Z,42.805,6.029,13.3058,4.60035,2470.31,2020-11-05T10:47:01Z
2020-11-05T08:49:08Z,42.805,6.029,13.3043,4.60033,2470.334,2020-11-05T10:50:04Z
2020-11-05T08:52:11Z,42.805,6.029,13.3044,4.59999,2470.32,2020-11-05T10:53:07Z
2020-11-05T08:55:14Z,42.805,6.029,13.3051,4.60007,2470.357,2020-11-05T10:56:10Z
2020-11-05T08:58:18Z,42.805,6.029,13.3052,4.60016,2470.334,2020-11-05T10:59:13Z
2020-11-05T09:01:21Z,42.805,6.029,13.3037,4.60017,2470.31,2020-11-05T11:02:16Z
2020-11-05T09:04:24Z,42.805,6.029,13.3041,4.60011,2470.357,2020-11-05T11:05:20Z
2020-11-05T09:07:27Z,42.805,6.029,13.3040,4.60015,2470.334,2020-11-05T11:08:23Z
2020-11-05T09:10:30Z,42.805,6.029,13.3035,4.60017,2470.343,2020-11-05T11:11:26Z
2020-11-05T09:13:33Z,42.805,6.029,13.3041,4.60019,2470.297,2020-11-05T11:14:29Z
2020-11-05T09:16:36Z,42.805,6.029,13.3036,4.60022,2470.273,2020-11-05T11:17:32Z
2020-11-05T09:19:39Z,42.805,6.029,13.3035,4.60024,2470.297,2020-11-05T11:20:35Z
2020-11-05T09:22:43Z,42.805,6.029,13.3039,4.60017,2470.273,2020-11-05T11:23:38Z
2020-11-05T09:25:46Z,42.805,6.029,13.3040,4.60024,2470.297,2020-11-05T11:26:41Z
2020-11-05T09:28:49Z,42.805,6.029,13.3034,4.60049,2470.31,2020-11-05T11:29:44Z
2020-11-05T09:31:52Z,42.805,6.029,13.3036,4.60026,2470.334,2020-11-05T11:32:48Z
2020-11-05T09:34:55Z,42.805,6.029,13.3053,4.60031,2470.334,2020-11-05T11:35:51Z
2020-11-05T09:37:58Z,42.805,6.029,13.3034,4.60026,2470.31,2020-11-05T11:38:54Z
2020-11-05T09:41:01Z,42.805,6.029,13.3039,4.60031,2470.357,2020-11-05T11:41:57Z
2020-11-05T09:44:04Z,42.805,6.029,13.3026,4.60025,2470.32,2020-11-05T11:45:00Z
2020-11-05T09:47:08Z,42.805,6.029,13.3018,4.60041,2470.343,2020-11-05T11:48:03Z
2020-11-05T09:50:11Z,42.805,6.029,13.2980,4.60120,2470.334,2020-11-05T11:51:06Z
2020-11-05T09:53:14Z,42.805,6.029,13.2981,4.60062,2470.343,2020-11-05T11:54:09Z
2020-11-05T09:56:17Z,42.805,6.029,13.3016,4.60033,2470.334,2020-11-05T11:57:13Z
2020-11-05T09:59:20Z,42.805,6.029,13.2979,4.60069,2470.32,2020-11-05T12:00:16Z
2020-11-05T10:02:23Z,42.805,6.029,13.2979,4.60034,2470.38,2020-11-05T12:03:19Z
2020-11-05T10:05:26Z,42.805,6.029,13.2981,4.60041,2470.32,2020-11-05T12:06:22Z
2020-11-05T10:08:29Z,42.805,6.029,13.2983,4.60020,2470.32,2020-11-05T12:09:25Z
2020-11-05T10:11:32Z,42.805,6.029,13.2983,4.60014,2470.32,2020-11-05T12:12:28Z
2020-11-05T10:14:36Z,42.805,6.029,13.2982,4.60005,2470.334,2020-11-05T12:15:31Z
2020-11-05T10:17:39Z,42.805,6.029,13.2976,4.60015,2470.343,2020-11-05T12:18:34Z
2020-11-05T10:20:42Z,42.805,6.029,13.2976,4.60016,2470.343,2020-11-05T12:21:38Z
2020-11-05T10:23:45Z,42.805,6.029,13.2976,4.60021,2470.343,2020-11-05T12:24:41Z
2020-11-05T10:26:48Z,42.805,6.029,13.2975,4.60021,2470.32,2020-11-05T12:27:44Z
2020-11-05T10:29:51Z,42.805,6.029,13.2974,4.60009,2470.334,2020-11-05T12:30:47Z
2020-11-05T10:32:54Z,42.805,6.029,13.2976,4.60003,2470.357,2020-11-05T12:33:50Z
2020-11-05T10:35:57Z,42.805,6.029,13.2977,4.60003,2470.297,2020-11-05T12:36:53Z
2020-11-05T10:39:01Z,42.805,6.029,13.3001,4.60014,2470.32,2020-11-05T12:39:56Z
2020-11-05T10:42:04Z,42.805,6.029,13.2985,4.60013,2470.297,2020-11-05T12:42:59Z
2020-11-05T10:45:07Z,42.805,6.029,13.3016,4.60033,2470.32,2020-11-05T12:46:03Z
2020-11-05T10:48:10Z,42.805,6.029,13.2989,4.60008,2470.334,2020-11-05T12:49:06Z
2020-11-05T10:51:13Z,42.805,6.029,13.3021,4.60010,2470.31,2020-11-05T12:52:09Z
2020-11-05T10:54:16Z,42.805,6.029,13.2990,4.60013,2470.357,2020-11-05T12:55:12Z
2020-11-05T10:57:19Z,42.805,6.029,13.3052,4.60051,2470.32,2020-11-05T12:58:15Z
2020-11-05T11:00:22Z,42.805,6.029,13.3032,4.60034,2470.31,2020-11-05T13:01:18Z
2020-11-05T11:03:26Z,42.805,6.029,13.3064,4.60029,2470.334,2020-11-05T13:04:21Z
2020-11-05T11:06:29Z,42.805,6.029,13.3039,4.60021,2470.343,2020-11-05T13:07:24Z
2020-11-05T11:09:32Z,42.805,6.029,13.3035,4.60024,2470.273,2020-11-05T13:10:28Z
2020-11-05T11:12:35Z,42.805,6.029,13.3035,4.60014,2470.297,2020-11-05T13:13:31Z
2020-11-05T11:15:38Z,42.805,6.029,13.3032,4.60020,2470.297,2020-11-05T13:16:34Z
2020-11-05T11:18:41Z,42.805,6.029,13.3040,4.60015,2470.297,2020-11-05T13:19:37Z
2020-11-05T11:21:44Z,42.805,6.029,13.3036,4.60017,2470.334,2020-11-05T13:22:40Z
2020-11-05T11:24:47Z,42.805,6.029,13.3052,4.60038,2470.334,2020-11-05T13:25:43Z
2020-11-05T11:27:51Z,42.805,6.029,13.3055,4.60044,2470.287,2020-11-05T13:28:46Z
2020-11-05T11:30:54Z,42.805,6.029,13.3021,4.60064,2470.297,2020-11-05T13:31:49Z
2020-11-05T11:33:57Z,42.805,6.029,13.2984,4.60030,2470.31,2020-11-05T13:34:53Z
2020-11-05T11:37:00Z,42.805,6.029,13.2974,4.60049,2470.31,2020-11-05T13:37:56Z
2020-11-05T11:40:03Z,42.805,6.029,13.2976,4.60087,2470.31,2020-11-05T13:40:59Z
2020-11-05T11:43:06Z,42.805,6.029,13.2979,4.60122,2470.287,2020-11-05T13:44:02Z
2020-11-05T11:46:09Z,42.805,6.029,13.2976,4.60079,2470.297,2020-11-05T13:47:05Z
2020-11-05T11:49:12Z,42.805,6.029,13.2976,4.60050,2470.25,2020-11-05T13:50:08Z
2020-11-05T11:52:16Z,42.805,6.029,13.2980,4.60019,2470.287,2020-11-05T13:53:11Z
2020-11-05T11:55:19Z,42.805,6.029,13.2975,4.60011,2470.297,2020-11-05T13:56:14Z
2020-11-05T11:58:22Z,42.805,6.029,13.2979,4.60008,2470.334,2020-11-05T13:59:18Z
2020-11-05T12:01:25Z,42.805,6.029,13.2978,4.60010,2470.273,2020-11-05T14:02:21Z
2020-11-05T12:04:28Z,42.805,6.029,13.2975,4.60011,2470.273,2020-11-05T14:05:24Z
2020-11-05T12:07:31Z,42.805,6.029,13.2976,4.60024,2470.297,2020-11-05T14:08:27Z
2020-11-05T12:10:34Z,42.805,6.029,13.2976,4.60017,2470.287,2020-11-05T14:11:30Z
2020-11-05T12:13:37Z,42.805,6.029,13.2981,4.59999,2470.273,2020-11-05T14:14:33Z
2020-11-05T12:16:41Z,42.805,6.029,13.2980,4.59985,2470.25,2020-11-05T14:17:36Z
2020-11-05T12:19:44Z,42.805,6.029,13.2976,4.59990,2470.31,2020-11-05T14:20:39Z
2020-11-05T12:22:47Z,42.805,6.029,13.2974,4.59994,2470.31,2020-11-05T14:23:43Z
2020-11-05T12:25:50Z,42.805,6.029,13.2975,4.59984,2470.287,2020-11-05T14:26:46Z
2020-11-05T12:28:53Z,42.805,6.029,13.2972,4.59984,2470.273,2020-11-05T14:29:49Z
2020-11-05T12:31:56Z,42.805,6.029,13.2977,4.59982,2470.287,2020-11-05T14:32:52Z
2020-11-05T12:34:59Z,42.805,6.029,13.2975,4.59984,2470.25,2020-11-05T14:35:55Z
2020-11-05T12:38:02Z,42.805,6.029,13.2977,4.59988,2470.25,2020-11-05T14:38:58Z
2020-11-05T12:41:06Z,42.805,6.029,13.2975,4.59985,2470.25,2020-11-05T14:42:01Z
2020-11-05T12:44:09Z,42.805,6.029,13.2978,4.59983,2470.297,2020-11-05T14:45:04Z
2020-11-05T12:47:12Z,42.805,6.029,13.2976,4.59986,2470.227,2020-11-05T14:48:08Z
2020-11-05T12:50:15Z,42.805,6.029,13.2982,4.59984,2470.273,2020-11-05T14:51:11Z
2020-11-05T12:53:18Z,42.805,6.029,13.2974,4.59986,2470.25,2020-11-05T14:54:14Z
2020-11-05T12:56:21Z,42.805,6.029,13.2979,4.59989,2470.264,2020-11-05T14:57:17Z
2020-11-05T12:59:24Z,42.805,6.029,13.2978,4.59983,2470.273,2020-11-05T15:00:20Z
2020-11-05T13:02:27Z,42.805,6.029,13.2974,4.59986,2470.217,2020-11-05T15:03:23Z
2020-11-05T13:05:31Z,42.805,6.029,13.2977,4.59983,2470.24,2020-11-05T15:06:26Z
2020-11-05T13:08:34Z,42.805,6.029,13.2981,4.59982,2470.25,2020-11-05T15:09:29Z
2020-11-05T13:11:37Z,42.805,6.029,13.2977,4.59985,2470.264,2020-11-05T15:12:32Z
2020-11-05T13:14:40Z,42.805,6.029,13.2978,4.59982,2470.217,2020-11-05T15:15:36Z
2020-11-05T13:17:43Z,42.805,6.029,13.2977,4.59986,2470.24,2020-11-05T15:18:39Z
2020-11-05T13:20:46Z,42.805,6.029,13.2979,4.59982,2470.264,2020-11-05T15:21:42Z
2020-11-05T13:23:49Z,42.805,6.029,13.2978,4.59982,2470.236,2020-11-05T15:24:45Z
2020-11-05T13:26:52Z,42.805,6.029,13.2982,4.59985,2470.227,2020-11-05T15:27:48Z
2020-11-05T13:29:55Z,42.805,6.029,13.2976,4.59985,2470.24,2020-11-05T15:30:51Z
2020-11-05T13:32:59Z,42.805,6.029,13.2978,4.59979,2470.203,2020-11-05T15:33:54Z
2020-11-05T13:36:02Z,42.805,6.029,13.2974,4.59980,2470.227,2020-11-05T15:36:57Z
2020-11-05T13:39:05Z,42.805,6.029,13.2977,4.59981,2470.227,2020-11-05T15:40:01Z
2020-11-05T13:42:08Z,42.805,6.029,13.2975,4.59981,2470.18,2020-11-05T15:43:04Z
2020-11-05T13:45:11Z,42.805,6.029,13.2976,4.59981,2470.25,2020-11-05T15:46:07Z
2020-11-05T13:48:14Z,42.805,6.029,13.2974,4.59979,2470.227,2020-11-05T15:49:10Z
2020-11-05T13:51:17Z,42.805,6.029,13.2978,4.59984,2470.227,2020-11-05T15:52:13Z
2020-11-05T13:54:20Z,42.805,6.029,13.2976,4.59989,2470.25,2020-11-05T15:55:16Z
2020-11-05T13:57:24Z,42.805,6.029,13.2972,4.59981,2470.227,2020-11-05T15:58:19Z
2020-11-05T14:00:27Z,42.805,6.029,13.2976,4.59984,2470.227,2020-11-05T16:01:22Z
2020-11-05T14:03:30Z,42.805,6.029,13.2979,4.59978,2470.264,2020-11-05T16:04:26Z
2020-11-05T14:06:33Z,42.805,6.029,13.2979,4.59981,2470.24,2020-11-05T16:07:29Z
2020-11-05T14:09:36Z,42.805,6.029,13.2976,4.59980,2470.203,2020-11-05T16:10:32Z
2020-11-05T14:12:39Z,42.805,6.029,13.2977,4.59980,2470.25,2020-11-05T16:13:35Z
2020-11-05T14:15:42Z,42.805,6.029,13.2976,4.59987,2470.203,2020-11-05T16:16:38Z
2020-11-05T14:18:45Z,42.805,6.029,13.2976,4.59983,2470.203,2020-11-05T16:19:41Z
2020-11-05T14:21:49Z,42.805,6.029,13.2974,4.59982,2470.24,2020-11-05T16:22:44Z
2020-11-05T14:24:52Z,42.805,6.029,13.2979,4.59979,2470.18,2020-11-05T16:25:47Z
2020-11-05T14:27:55Z,42.805,6.029,13.2978,4.59988,2470.217,2020-11-05T16:28:51Z
2020-11-05T14:30:58Z,42.805,6.029,13.2975,4.59984,2470.203,2020-11-05T16:31:54Z
2020-11-05T14:34:01Z,42.805,6.029,13.2974,4.59983,2470.194,2020-11-05T16:34:57Z
2020-11-05T14:37:04Z,42.805,6.029,13.2978,4.59982,2470.18,2020-11-05T16:38:00Z
2020-11-05T14:40:07Z,42.805,6.029,13.2977,4.59980,2470.24,2020-11-05T16:41:03Z
2020-11-05T14:43:10Z,42.805,6.029,13.2977,4.59983,2470.203,2020-11-05T16:44:06Z
2020-11-05T14:46:14Z,42.805,6.029,13.2975,4.59982,2470.227,2020-11-05T16:47:09Z
2020-11-05T14:49:17Z,42.805,6.029,13.2976,4.59982,2470.194,2020-11-05T16:50:12Z
2020-11-05T14:52:20Z,42.805,6.029,13.2979,4.59986,2470.203,2020-11-05T16:53:16Z
2020-11-05T14:55:23Z,42.805,6.029,13.2974,4.59985,2470.217,2020-11-05T16:56:19Z
2020-11-05T14:58:26Z,42.805,6.029,13.2975,4.59982,2470.18,2020-11-05T16:59:22Z
2020-11-05T15:01:29Z,42.805,6.029,13.2976,4.59989,2470.18,2020-11-05T17:02:25Z